(298847) = 1995 AC2 = 2004 RD197

Discovered at Socorro on 2004-09-10 by LINEAR.

Orbit

Orbit type: Main Belt

Note: WebGL enabled browser required.

epoch2024-03-31.0
epoch JD2460400.5
perihelion date2025-07-28.86308
perihelion JD2460885.36308
argument of perihelion (°)86.66957
ascending node (°)291.95086
inclination (°)6.87047
eccentricity0.2306021
perihelion distance (AU)1.7622242
Tisserand w.r.t. Jupiter3.6
ΔV w.r.t. Earth (km/sec)8.5
semimajor axis (AU)2.2903940
mean anomaly (°)222.13384
mean daily motion (°/day)0.28434040
aphelion distance (AU)2.819
period (years)3.47
P-vector [x]0.94100557
P-vector [y]0.24298707
P-vector [z]0.23551176
Q-vector [x]-0.31968416
Q-vector [y]0.86654867
Q-vector [z]0.38326940
absolute magnitude17.37
phase slope0.15
uncertainty0
referenceMPEC 2024-C40
observations used314
oppositions12
arc length (days)10297
first opposition used1995
last opposition used2023
residual rms (arc-secs)0.73
perturbers coarse indicatorM-v
perturbers precise indicator003Ek
first observation date used1995-01-08.0
last observation date used2023-03-19.0
computer nameMPCLINUX
JD of orbit computation2456406.159550
perihelion JD uncertainty (days)4.5858E-05
argument of perihelion uncertainty (°)6.8554E-05
ascending node uncertainty (°)6.6033E-05
inclination uncertainty (°)5.3469E-06
eccentricity uncertainty 1.0430E-07
perihelion distance uncertainty (AU)2.4080E-07
Minimum Orbit Intersection Distances (in AU)
for orbit epoch: 2460200.5, reference: E2024-C40
Mercury1.42598
Venus1.05423
Earth0.77926
Mars0.37847
Jupiter2.69204
Saturn6.72634
Uranus15.7142
Neptune27.9

Observations

324 total observations over interval: 1995 01 08.34716 – 2023 03 19.274104
These data are available for download (format description).

Date (UT) J2000 RA J2000 Dec Magn Location Ref
1995 01 08.34716 07 44 12.30 +21 32 14.7 19.6 V 691 – Steward Observatory, Kitt Peak-Spacewatch MPC 24663
1995 01 08.35547 07 44 11.62 +21 32 14.3   691 – Steward Observatory, Kitt Peak-Spacewatch MPC 24663
1995 01 08.45500 07 44 03.85 +21 32 08.4 19.7 V 691 – Steward Observatory, Kitt Peak-Spacewatch MPC 24664
1995 01 08.47270 07 44 02.49 +21 32 07.3   691 – Steward Observatory, Kitt Peak-Spacewatch MPC 24664
1995 01 08.48991 07 44 01.12 +21 32 06.3   691 – Steward Observatory, Kitt Peak-Spacewatch MPC 24664
1995 01 09.16922 07 43 10.40 +21 31 31.3 19.5 V 691 – Steward Observatory, Kitt Peak-Spacewatch MPC 24664
1995 01 09.18554 07 43 09.18 +21 31 31.3   691 – Steward Observatory, Kitt Peak-Spacewatch MPC 24664
2001 12 18.47581 08 52 13.20 +17 32 11.8 20.8   704 – Lincoln Laboratory ETS, New Mexico MPS 120534
2001 12 18.49279 08 52 12.57 +17 32 10.0 20.6   704 – Lincoln Laboratory ETS, New Mexico MPS 120534
2001 12 18.52345 08 52 11.64 +17 32 07.6 20.4   704 – Lincoln Laboratory ETS, New Mexico MPS 120534
2002 01 13.32487 08 28 57.75 +17 23 29.6 20.7   704 – Lincoln Laboratory ETS, New Mexico MPS 120534
2002 01 13.34003 08 28 56.68 +17 23 30.4 20.4   704 – Lincoln Laboratory ETS, New Mexico MPS 120534
2002 01 13.37037 08 28 54.43 +17 23 30.8 20.2   704 – Lincoln Laboratory ETS, New Mexico MPS 120534
2004 09 10.30231 01 05 34.91 +21 35 01.6 19.5   704 – Lincoln Laboratory ETS, New Mexico MPS 113239
2004 09 10.31354 01 05 34.69 +21 35 06.1 19.4   704 – Lincoln Laboratory ETS, New Mexico MPS 113239
2004 09 10.32476 01 05 34.46 +21 35 09.9 19.8   704 – Lincoln Laboratory ETS, New Mexico MPS 113239
2004 09 10.33599 01 05 34.25 +21 35 14.9 20.3   704 – Lincoln Laboratory ETS, New Mexico MPS 113239
2004 09 13.29492 01 04 34.73 +21 51 26.0 19.0   704 – Lincoln Laboratory ETS, New Mexico MPS 113239
2004 09 13.30673 01 04 34.37 +21 51 30.4 19.5   704 – Lincoln Laboratory ETS, New Mexico MPS 113239
2004 09 13.31849 01 04 34.06 +21 51 34.2 19.7   704 – Lincoln Laboratory ETS, New Mexico MPS 113239
2004 09 13.33041 01 04 33.76 +21 51 37.7 19.5   704 – Lincoln Laboratory ETS, New Mexico MPS 113239
2004 09 13.34213 01 04 33.45 +21 51 41.5 19.5   704 – Lincoln Laboratory ETS, New Mexico MPS 113239
2004 09 14.30519 01 04 10.12 +21 56 19.7 18.8   704 – Lincoln Laboratory ETS, New Mexico MPS 120534
2004 09 14.31638 01 04 09.84 +21 56 23.2 19.0   704 – Lincoln Laboratory ETS, New Mexico MPS 120534
2004 09 14.32761 01 04 09.49 +21 56 25.9 19.4   704 – Lincoln Laboratory ETS, New Mexico MPS 120534
2004 09 14.33888 01 04 09.16 +21 56 29.5 19.0   704 – Lincoln Laboratory ETS, New Mexico MPS 120534
2004 09 14.35006 01 04 08.84 +21 56 33.1 19.2   704 – Lincoln Laboratory ETS, New Mexico MPS 120534
2004 09 22.32368 00 59 47.67 +22 22 23.9 18.3 R 699 – Lowell Observatory-LONEOS MPS 120534
2004 09 22.33995 00 59 47.00 +22 22 25.3   699 – Lowell Observatory-LONEOS MPS 120534
2004 09 22.35620 00 59 46.23 +22 22 27.3   699 – Lowell Observatory-LONEOS MPS 120534
2004 09 22.37243 00 59 45.46 +22 22 29.1   699 – Lowell Observatory-LONEOS MPS 120534
2004 09 23.28875 00 59 09.01 +22 23 58.0 19.1   704 – Lincoln Laboratory ETS, New Mexico MPS 120534
2004 09 23.30058 00 59 08.42 +22 23 59.3 19.1   704 – Lincoln Laboratory ETS, New Mexico MPS 120534
2004 09 23.31241 00 59 07.90 +22 24 00.1 19.2   704 – Lincoln Laboratory ETS, New Mexico MPS 120534
2004 09 23.32424 00 59 07.41 +22 24 01.4 19.6   704 – Lincoln Laboratory ETS, New Mexico MPS 120534
2004 09 23.33612 00 59 06.81 +22 24 02.2 18.9   704 – Lincoln Laboratory ETS, New Mexico MPS 120534
2004 11 04.17826 00 31 02.86 +19 07 23.9 18.8   644 – Palomar Mountain/NEAT MPS 120534
2004 11 04.19904 00 31 02.54 +19 07 14.6 19.0   644 – Palomar Mountain/NEAT MPS 120534
2004 11 04.21951 00 31 02.25 +19 07 05.6 18.8   644 – Palomar Mountain/NEAT MPS 120534
2004 11 04.25462 00 31 01.66 +19 06 49.7 18.6 R 703 – Catalina Sky Survey MPS 120534
2004 11 04.26507 00 31 01.48 +19 06 45.1 18.7 R 703 – Catalina Sky Survey MPS 120534
2004 11 04.27556 00 31 01.36 +19 06 40.5 18.1 R 703 – Catalina Sky Survey MPS 120534
2004 11 04.28600 00 31 01.17 +19 06 36.1 18.7 R 703 – Catalina Sky Survey MPS 120534
2004 12 02.08852 00 40 58.18 +16 37 51.0 19.9   644 – Palomar Mountain/NEAT MPS 120534
2004 12 02.10951 00 40 59.22 +16 37 46.7 19.1   644 – Palomar Mountain/NEAT MPS 120534
2004 12 02.13269 00 41 00.27 +16 37 43.7 19.5   644 – Palomar Mountain/NEAT MPS 120534
2008 12 22.38553 09 27 07.45 +13 22 04.1 21.2 V G96 – Mt. Lemmon Survey MPS 269247
2008 12 22.39062 09 27 07.30 +13 22 03.6 20.7 V G96 – Mt. Lemmon Survey MPS 269247
2008 12 22.39575 09 27 07.16 +13 22 02.9 20.6 V G96 – Mt. Lemmon Survey MPS 269247
2008 12 22.40085 09 27 07.09 +13 22 02.1 20.6 V G96 – Mt. Lemmon Survey MPS 269247
2009 01 15.36389 09 09 26.12 +13 12 42.3 20.8 V 691 – Steward Observatory, Kitt Peak-Spacewatch MPS 272493
2009 01 15.38200 09 09 24.94 +13 12 43.7 20.4 V 691 – Steward Observatory, Kitt Peak-Spacewatch MPS 272493
2009 01 15.40037 09 09 23.75 +13 12 44.5 20.6 V 691 – Steward Observatory, Kitt Peak-Spacewatch MPS 272493
2009 02 04.24719 08 46 39.07 +13 44 59.1 20.2 V G96 – Mt. Lemmon Survey MPS 272493
2009 02 04.25336 08 46 38.64 +13 44 59.4 20.3 V G96 – Mt. Lemmon Survey MPS 272493
2009 02 04.25955 08 46 38.20 +13 45 00.2 20.5 V G96 – Mt. Lemmon Survey MPS 272493
2009 02 04.26568 08 46 37.74 +13 45 01.4 20.4 V G96 – Mt. Lemmon Survey MPS 272493
2010 05 13.392552 14 18 51.091 -24 25 26.37 21.32 r F51 – Pan-STARRS 1, Haleakala MPS 337318
2010 05 13.404409 14 18 50.384 -24 25 21.70 21.30 r F51 – Pan-STARRS 1, Haleakala MPS 337318
2011 06 28.43582 00 46 04.72 +11 07 07.3 21.0 V G96 – Mt. Lemmon Survey MPS 385784
2011 06 28.44282 00 46 05.44 +11 07 14.1 20.8 V G96 – Mt. Lemmon Survey MPS 385784
2011 06 28.44979 00 46 06.20 +11 07 20.8 20.8 V G96 – Mt. Lemmon Survey MPS 385784
2011 06 28.45668 00 46 06.96 +11 07 27.3 21.1 V G96 – Mt. Lemmon Survey MPS 385784
2011 09 26.35641 02 35 35.52 +29 27 48.9 19.4 V 703 – Catalina Sky Survey MPS 392627
2011 09 26.36465 02 35 35.34 +29 27 50.9 19.4 V 703 – Catalina Sky Survey MPS 392627
2011 09 26.37286 02 35 35.37 +29 27 54.2 18.8 V 703 – Catalina Sky Survey MPS 392627
2011 09 26.38129 02 35 35.37 +29 27 57.0 19.3 V 703 – Catalina Sky Survey MPS 392627
2011 10 05.00131 02 33 58.18 +30 02 42.4 18.3 R 106 – Crni Vrh MPS 394210
2011 10 05.01368 02 33 57.87 +30 02 44.0 18.0 R 106 – Crni Vrh MPS 394210
2011 10 05.02602 02 33 57.54 +30 02 46.0 18.1 R 106 – Crni Vrh MPS 394210
2011 10 05.03839 02 33 57.30 +30 02 48.1 17.9 R 106 – Crni Vrh MPS 394210
2011 10 17.72155 02 26 33.85 +30 07 42.2 19.1 R D29 – Purple Mountain Observatory, XuYi Station MPS 396192
2011 10 17.73753 02 26 33.05 +30 07 39.0 18.5 R D29 – Purple Mountain Observatory, XuYi Station MPS 396192
2011 10 17.75351 02 26 32.29 +30 07 38.1 18.5 R D29 – Purple Mountain Observatory, XuYi Station MPS 396192
2011 10 18.05304 02 26 18.35 +30 06 58.7 18.2 R 461 – University of Szeged, Piszkesteto Stn. (Konkol MPS 396192
2011 10 18.06394 02 26 17.83 +30 06 57.1 18.4 R 461 – University of Szeged, Piszkesteto Stn. (Konkol MPS 396192
2011 10 18.07486 02 26 17.26 +30 06 55.6 18.4 R 461 – University of Szeged, Piszkesteto Stn. (Konkol MPS 396192
2011 10 18.08603 02 26 16.72 +30 06 54.1 18.2 R 461 – University of Szeged, Piszkesteto Stn. (Konkol MPS 396192
2011 10 18.09691 02 26 16.18 +30 06 52.5 18.3 R 461 – University of Szeged, Piszkesteto Stn. (Konkol MPS 396192
2011 10 18.10782 02 26 15.63 +30 06 50.8 18.2 R 461 – University of Szeged, Piszkesteto Stn. (Konkol MPS 396192
2011 10 18.25700 02 26 09.34 +30 06 35.5 18.7 V 703 – Catalina Sky Survey MPS 396192
2011 10 18.26355 02 26 09.02 +30 06 34.3 18.6 V 703 – Catalina Sky Survey MPS 396192
2011 10 18.27013 02 26 08.70 +30 06 33.9 18.5 V 703 – Catalina Sky Survey MPS 396192
2011 10 18.27670 02 26 08.37 +30 06 33.1 18.8 V 703 – Catalina Sky Survey MPS 396192
2011 10 24.38164 02 20 59.24 +29 46 15.6 18.6 V 703 – Catalina Sky Survey MPS 398090
2011 10 24.39200 02 20 58.63 +29 46 12.6 18.8 V 703 – Catalina Sky Survey MPS 398090
2011 10 24.40242 02 20 58.05 +29 46 09.5 18.5 V 703 – Catalina Sky Survey MPS 398090
